When you browse on this site, cookies collect data to enhance your experience and personalize the content and advertising you see.
Visit our Privacy Policy to learn more. By continuing to use the site, you agree to this use of cookies and data.
  • în România
  • Lista ţărilor
  • Pe 7 zile
  • Temperatura apei
  • Meteo pe hartă
  • Widget-uri
  • user-avatar
    Intrare

    Meteo pe oră la Sidorovskoe

    Astăzi, 19 Septembrie, Joi

    Timp Temperatura Precipitaţii Vânt Presiune Umiditate
    00:00 +6°C° 0 mm 2 m/s 747 mmHg 98%
    01:00 +5°C° 0 mm 2 m/s 747 mmHg 98%
    02:00 +5°C° 0 mm 2 m/s 748 mmHg 98%
    03:00 +5°C° 0 mm 2 m/s 748 mmHg 98%
    04:00 +4°C° 0 mm 2 m/s 748 mmHg 97%
    05:00 +4°C° 0 mm 2 m/s 749 mmHg 97%
    06:00 +4°C° 0 mm 2 m/s 749 mmHg 95%
    07:00 +5°C° 0 mm 2 m/s 750 mmHg 93%
    08:00 +5°C° 0 mm 2 m/s 750 mmHg 93%
    09:00 +6°C° 0 mm 2 m/s 750 mmHg 87%
    10:00 +7°C° 0 mm 2 m/s 751 mmHg 82%
    11:00 +9°C° 0 mm 1 m/s 751 mmHg 76%
    12:00 +9°C° 0.2 mm 2 m/s 751 mmHg 75%
    13:00 +9°C° 0.2 mm 2 m/s 751 mmHg 73%
    14:00 +9°C° 0.2 mm 2 m/s 751 mmHg 72%
    15:00 +9°C° 0.2 mm 2 m/s 752 mmHg 76%
    16:00 +8°C° 0.2 mm 2 m/s 752 mmHg 80%
    17:00 +8°C° 0.2 mm 2 m/s 752 mmHg 84%
    18:00 +7°C° 0 mm 1 m/s 752 mmHg 87%
    19:00 +6°C° 0 mm 1 m/s 752 mmHg 89%
    20:00 +5°C° 0 mm 1 m/s 753 mmHg 92%
    21:00 +5°C° 0 mm 1 m/s 753 mmHg 93%
    22:00 +4°C° 0 mm 1 m/s 753 mmHg 94%
    23:00 +4°C° 0 mm 1 m/s 753 mmHg 95%

    Mâine, 20 Septembrie, Vineri

    Timp Temperatura Precipitaţii Vânt Presiune Umiditate
    00:00 +3°C° 0 mm 1 m/s 753 mmHg 95%
    01:00 +3°C° 0 mm 1 m/s 753 mmHg 95%
    02:00 +3°C° 0 mm 1 m/s 753 mmHg 95%
    03:00 +2°C° 0 mm 1 m/s 753 mmHg 95%
    04:00 +2°C° 0 mm 1 m/s 752 mmHg 95%
    05:00 +2°C° 0 mm 1 m/s 752 mmHg 95%
    06:00 +3°C° 0 mm 1 m/s 752 mmHg 93%
    07:00 +4°C° 0 mm 1 m/s 752 mmHg 90%
    08:00 +4°C° 0 mm 2 m/s 753 mmHg 87%
    09:00 +5°C° 0.1 mm 2 m/s 753 mmHg 85%
    10:00 +5°C° 0.1 mm 3 m/s 753 mmHg 83%
    11:00 +7°C° 0.1 mm 3 m/s 753 mmHg 81%
    12:00 +7°C° 0.1 mm 3 m/s 753 mmHg 76%
    13:00 +8°C° 0.1 mm 3 m/s 753 mmHg 71%
    14:00 +8°C° 0.1 mm 4 m/s 753 mmHg 65%
    15:00 +8°C° 0 mm 3 m/s 753 mmHg 67%
    16:00 +8°C° 0 mm 2 m/s 753 mmHg 69%
    17:00 +7°C° 0 mm 2 m/s 753 mmHg 71%
    18:00 +7°C° 0 mm 1 m/s 754 mmHg 77%
    19:00 +5°C° 0 mm 1 m/s 754 mmHg 83%
    20:00 +4°C° 0 mm 1 m/s 754 mmHg 89%
    21:00 +3°C° 0 mm 1 m/s 754 mmHg 89%
    22:00 +3°C° 0 mm 1 m/s 754 mmHg 90%
    23:00 +2°C° 0 mm 1 m/s 754 mmHg 90%

    Poimâine, 21 Septembrie, Sâmbătă

    Timp Temperatura Precipitaţii Vânt Presiune Umiditate
    00:00 +2°C° 0 mm 1 m/s 754 mmHg 90%
    01:00 +2°C° 0 mm 1 m/s 754 mmHg 89%
    02:00 +1°C° 0 mm 2 m/s 754 mmHg 88%
    03:00 +2°C° 0 mm 2 m/s 753 mmHg 88%
    04:00 +2°C° 0 mm 2 m/s 753 mmHg 87%
    05:00 +3°C° 0 mm 2 m/s 753 mmHg 86%
    06:00 +3°C° 0.3 mm 2 m/s 752 mmHg 87%
    07:00 +4°C° 0.3 mm 2 m/s 752 mmHg 89%
    08:00 +3°C° 0.3 mm 3 m/s 752 mmHg 90%
    09:00 +4°C° 0 mm 3 m/s 751 mmHg 89%
    10:00 +6°C° 0 mm 2 m/s 751 mmHg 87%
    11:00 +7°C° 0 mm 2 m/s 751 mmHg 85%
    12:00 +6°C° 0.1 mm 2 m/s 750 mmHg 88%
    13:00 +6°C° 0.1 mm 2 m/s 750 mmHg 91%
    14:00 +6°C° 0.1 mm 2 m/s 749 mmHg 94%
    15:00 +6°C° 0.2 mm 2 m/s 749 mmHg 95%
    16:00 +6°C° 0.2 mm 2 m/s 749 mmHg 96%
    17:00 +7°C° 0.2 mm 1 m/s 748 mmHg 96%
    18:00 +7°C° 0 mm 1 m/s 748 mmHg 97%
    19:00 +7°C° 0 mm 1 m/s 748 mmHg 98%
    20:00 +7°C° 0 mm 1 m/s 748 mmHg 98%
    21:00 +6°C° 0 mm 1 m/s 747 mmHg 98%
    22:00 +6°C° 0 mm 1 m/s 747 mmHg 98%
    23:00 +6°C° 0 mm 1 m/s 746 mmHg 99%

    22 Septembrie, Duminică

    Timp Temperatura Precipitaţii Vânt Presiune Umiditate
    00:00 +6°C° 0.2 mm 1 m/s 746 mmHg 99%
    01:00 +7°C° 0.2 mm 1 m/s 746 mmHg 98%
    02:00 +6°C° 0.2 mm 2 m/s 746 mmHg 98%
    03:00 +6°C° 0.2 mm 2 m/s 746 mmHg 97%
    04:00 +5°C° 0.2 mm 3 m/s 746 mmHg 96%
    05:00 +6°C° 0.2 mm 4 m/s 746 mmHg 94%
    06:00 +5°C° 0.3 mm 4 m/s 747 mmHg 92%
    07:00 +5°C° 0.3 mm 5 m/s 747 mmHg 89%
    08:00 +3°C° 0.3 mm 5 m/s 748 mmHg 87%
    09:00 +5°C° 0.1 mm 5 m/s 749 mmHg 81%
    10:00 +6°C° 0.1 mm 5 m/s 750 mmHg 75%
    11:00 +7°C° 0.1 mm 5 m/s 751 mmHg 69%
    12:00 +7°C° 0.2 mm 5 m/s 751 mmHg 65%
    13:00 +7°C° 0.2 mm 6 m/s 752 mmHg 62%
    14:00 +8°C° 0.2 mm 6 m/s 752 mmHg 58%
    15:00 +7°C° 0 mm 5 m/s 753 mmHg 60%
    16:00 +6°C° 0 mm 4 m/s 753 mmHg 63%
    17:00 +7°C° 0 mm 3 m/s 754 mmHg 65%
    18:00 +4°C° 0 mm 3 m/s 754 mmHg 70%
    19:00 +4°C° 0 mm 2 m/s 755 mmHg 75%
    20:00 +3°C° 0 mm 2 m/s 755 mmHg 80%
    21:00 +2°C° 0 mm 2 m/s 755 mmHg 83%
    22:00 +2°C° 0 mm 2 m/s 756 mmHg 86%
    23:00 +1°C° 0 mm 2 m/s 756 mmHg 89%

    23 Septembrie, Luni

    Timp Temperatura Precipitaţii Vânt Presiune Umiditate
    00:00 +1°C° 0 mm 2 m/s 756 mmHg 90%
    01:00 +1°C° 0 mm 2 m/s 756 mmHg 91%
    02:00 +1°C° 0 mm 2 m/s 757 mmHg 92%
    03:00 +1°C° 0 mm 2 m/s 757 mmHg 91%
    04:00 +1°C° 0 mm 2 m/s 757 mmHg 91%
    05:00 +1°C° 0 mm 2 m/s 757 mmHg 91%
    06:00 +2°C° 0 mm 2 m/s 757 mmHg 86%
    07:00 +3°C° 0 mm 2 m/s 757 mmHg 81%
    08:00 +4°C° 0 mm 2 m/s 757 mmHg 76%
    09:00 +5°C° 0 mm 2 m/s 757 mmHg 69%
    10:00 +6°C° 0 mm 2 m/s 757 mmHg 63%
    11:00 +8°C° 0 mm 2 m/s 757 mmHg 57%
    12:00 +8°C° 0 mm 2 m/s 756 mmHg 58%
    13:00 +8°C° 0 mm 3 m/s 756 mmHg 58%
    14:00 +8°C° 0 mm 3 m/s 756 mmHg 58%
    15:00 +8°C° 0 mm 2 m/s 755 mmHg 63%
    16:00 +7°C° 0 mm 2 m/s 755 mmHg 68%
    17:00 +7°C° 0 mm 1 m/s 755 mmHg 73%
    18:00 +7°C° 0 mm 1 m/s 755 mmHg 76%
    19:00 +6°C° 0 mm 1 m/s 755 mmHg 79%
    20:00 +5°C° 0 mm 1 m/s 755 mmHg 81%
    21:00 +5°C° 0 mm 1 m/s 755 mmHg 83%
    22:00 +4°C° 0 mm 1 m/s 755 mmHg 85%
    23:00 +3°C° 0 mm 0 m/s 755 mmHg 86%

    24 Septembrie, Marţi

    Timp Temperatura Precipitaţii Vânt Presiune Umiditate
    00:00 +3°C° 0 mm 0 m/s 755 mmHg 87%
    01:00 +3°C° 0 mm 0 m/s 755 mmHg 87%
    02:00 +2°C° 0 mm 0 m/s 755 mmHg 87%
    03:00 +2°C° 0 mm 0 m/s 755 mmHg 88%
    04:00 +2°C° 0 mm 1 m/s 755 mmHg 90%
    05:00 +1°C° 0 mm 1 m/s 754 mmHg 91%
    06:00 +2°C° 0 mm 1 m/s 754 mmHg 84%
    07:00 +4°C° 0 mm 1 m/s 754 mmHg 77%
    08:00 +5°C° 0 mm 1 m/s 754 mmHg 70%
    09:00 +6°C° 0 mm 1 m/s 754 mmHg 63%
    10:00 +7°C° 0 mm 2 m/s 755 mmHg 57%
    11:00 +8°C° 0 mm 2 m/s 755 mmHg 50%
    12:00 +8°C° 0 mm 2 m/s 754 mmHg 48%
    13:00 +9°C° 0 mm 2 m/s 754 mmHg 47%
    14:00 +9°C° 0 mm 2 m/s 754 mmHg 46%
    15:00 +8°C° 0 mm 2 m/s 754 mmHg 52%
    16:00 +8°C° 0 mm 1 m/s 754 mmHg 59%
    17:00 +7°C° 0 mm 1 m/s 754 mmHg 65%
    18:00 +6°C° 0 mm 1 m/s 754 mmHg 71%
    19:00 +4°C° 0 mm 1 m/s 754 mmHg 77%
    20:00 +3°C° 0 mm 1 m/s 754 mmHg 83%
    21:00 +3°C° 0 mm 1 m/s 754 mmHg 85%
    22:00 +2°C° 0 mm 1 m/s 754 mmHg 87%
    23:00 +2°C° 0 mm 1 m/s 754 mmHg 90%
    Arată mai mult